Regional Weather Roundup
Issued by NWS

Home | Current Version | Previous Version | Text Only | Print | Product List | Glossary Off
Versions: 1 2 3 4 5 6 7 8 9 10 11 12 13 14 15 16 17 18 19 20 21 22 23 24 25 26 27 28 29 30 31 32 33 34 35 36 37 38 39 40 41 42 43 44 45 46 47 48 49 50

722
ASUS45 KSLC 300410
RWRUT

UTAH REGIONAL WEATHER ROUNDUP
NATIONAL WEATHER SERVICE SALT LAKE CITY UT
1000 PM MDT THU SEP 29 2016

UTZ001>011-023>025-300500-

NORTHERN UTAH

CITY           SKY/WX    TMP DP  RH WIND       PRES   REMARKS
BRIGHAM CITY     N/A     59  53  82 CALM      30.19S
HILL AFB       CLEAR     62  48  62 SE10      30.21R
LOGAN          CLEAR     58  52  80 S5        30.20R
OGDEN          CLOUDY    60  52  74 S7        30.19R
PROVO AIRPORT  MOCLDY    68  50  52 SE15      30.23R
SALT LAKE CITY PTCLDY    65  51  60 SE7       30.18S
VERNAL         CLOUDY    58  54  86 NW3       30.32F
WENDOVER       MOCLDY    70  45  40 NW6       30.18S
HEBER CITY     CLOUDY    63  45  51 N3        30.28R
WEST JORDAN    PTCLDY    61  49  64 CALM      30.22S

$$

UTZ012>022-026-027-300500-

SOUTHERN/CENTRAL UTAH

CITY           SKY/WX    TMP DP  RH WIND       PRES   REMARKS
BLANDING       CLOUDY    55  53  93 N5        30.47S
BRYCE CANYON   CLOUDY    49  46  90 W7        30.45R
CEDAR CITY     PTCLDY    60  48  64 S5        30.30R
DELTA          PTCLDY    64  41  42 SE6       30.23R
MILFORD        PTCLDY    65  47  52 S12       30.25R
MOAB/CYNLANDS  CLOUDY    63  55  75 NE5       30.31S
PRICE          MOCLDY    55  51  86 E6        30.37S
ST GEORGE      PTCLDY    72  54  53 NW5       30.20R

$$

REGIONAL REPORTS     COLORADO/ARIZONA

CITY           SKY/WX    TMP DP  RH WIND       PRES   REMARKS
CRAIG, CO      CLOUDY    53  49  86 CALM      30.38S
GRAND JUNCTION LGT RAIN  61  54  77 SE5       30.34R
RIFLE          LGT RAIN  60  53  77 W7        30.37S
MONTROSE       LGT RAIN  57  51  80 SW5       30.42R
CORTEZ         CLOUDY    54  52  93 N3        30.41S
PAGE, AZ       CLOUDY    64  59  83 NE3       30.30R
GRAND CANYON   CLOUDY    54  50  86 NE3       30.41R
KINGMAN        PTCLDY    73  47  39 SE8       30.17R
FLAGSTAFF      CLEAR     46  46 100 CALM      30.43R

$$

REGIONAL REPORTS    NEVADA/IDAHO/WYOMING

CITY           SKY/WX    TMP DP  RH WIND       PRES   REMARKS
LAS VEGAS, NV  PTCLDY    84  45  25 S3        30.05R
ELY            PTCLDY    53  38  56 S9        30.30R
ELKO           MOCLDY    65  44  46 NE5       30.21R
POCATELLO, ID  CLEAR     67  45  45 S5        30.17R
EVANSTON, WY   CLEAR     54  41  61 S6        30.35R
ROCK SPRINGS   CLOUDY    55  45  68 S8        30.34R

$$




USA.gov is the U.S. government's official web portal to all federal, state and local government web resources and services.